Regional Weather Roundup
Issued by NWS

Home | Current Version | Previous Version | Graphics & Text | Print | Product List | Glossary On
Versions: 1 2 3 4 5 6 7 8 9 10 11 12 13 14 15 16 17 18 19 20 21 22 23 24 25 26 27 28 29 30 31 32 33 34 35 36 37 38 39 40 41 42 43 44 45 46 47 48 49 50
000
ASUS44 KMEG 220610
RWRTN
TENNESSEE HOURLY STATE WEATHER ROUNDUP
NATIONAL WEATHER SERVICE MEMPHIS TN
1200 AM CST THU FEB 22 2018

TNZ002-004-019-021-049-052-054-088>092-220700-
WEST TENNESSEE

CITY           SKY/WX    TMP DP  RH WIND       PRES   REMARKS
MEMPHIS INTL   HVY RAIN  48  47  96 NW8       30.25R FOG
NWS MEMPHIS      N/A     47 N/A N/A MISG        N/A
JACKSON        HVY RAIN  47  47 100 N9        30.29S FOG
DYERSBURG      LGT RAIN  41  40  96 NE16      30.27F
SOMERVILLE     CLOUDY    48  48 100 VRB6G13   30.23F FOG
COVINGTON      CLOUDY    45  43  93 N12       30.27F FOG
UNION CITY     CLOUDY    41  39  93 NE16      30.30F FOG
BOLIVAR        CLOUDY    48  46  93 VRB6      30.24F FOG
PARIS          CLOUDY    43  43 100 N10       30.27R FOG
HUNTINGDON     CLOUDY    46  45  93 NW7G15    30.29  FOG
LEXINGTON      CLOUDY    46  46 100 NW7       30.26R FOG
SAVANNAH       CLOUDY    52  52 100 CALM      30.22F
$$

TNZ008-025-027-028-033-062-065-066-220700-
NORTH MIDDLE TENNESSEE

CITY           SKY/WX    TMP DP  RH WIND       PRES   REMARKS
NASHVILLE      CLOUDY    51  49  92 CALM      30.27F
PORTLAND       CLOUDY    52  50  93 NE7       30.27S FOG
CLARKSVILLE    RAIN      47  44  90 N9        30.28F FOG
SMYRNA         CLOUDY    51  50  96 W3        30.29S
COOKEVILLE     MOCLDY    55  55 100 CALM      30.26F
GALLATIN       CLOUDY    52  52 100 VRB7      30.29F FOG
CROSSVILLE     FAIR      67  60  78 S10G21    30.31F
$$

TNZ061-075-076-078-094-096-097-220700-
SOUTH MIDDLE TENNESSEE

CITY           SKY/WX    TMP DP  RH WIND       PRES   REMARKS
FAYETTEVILLE   MOCLDY    57  57 100 CALM      30.26F FOG
TULLAHOMA      FOG       55  54  94 CALM      30.26F VSB 1/4
WINCHESTER     PTCLDY    70  63  78 S10       30.28R
MCMINNVILLE    CLOUDY    57  55  94 CALM      30.27S
COLUMBIA       CLOUDY    52  52 100 E5        30.24F
SHELBYVILLE    CLOUDY    52  52 100 CALM      30.27F FOG
$$

TNZ017-018-042-046-047-220700-
NORTHEAST TENNESSEE

CITY           SKY/WX    TMP DP  RH WIND       PRES   REMARKS
TRI CITIES     CLOUDY    61  57  87 CALM      30.34F
ELIZABETHTON   FAIR      61  55  82 E6        30.36F
$$

TNZ012-013-036-069-073-074-220700-
CENTRAL EAST TENNESSEE

CITY           SKY/WX    TMP DP  RH WIND       PRES   REMARKS
KNOXVILLE      MOCLDY    68  59  73 S8        30.29F
OAK RIDGE      FAIR      64  62  93 CALM      30.31F
DOWNTOWN KNOXV CLEAR     57  57 100 CALM      30.31S
GATLINBURG     CLEAR     59  55  88 CALM      30.30F
MORRISTOWN     PTCLDY    63  57  82 CALM      30.32F
JACKSBORO      CLOUDY    70  61  73 S10G16    30.33F
$$

TNZ083-085-099-220700-
SOUTHEAST TENNESSEE

CITY           SKY/WX    TMP DP  RH WIND       PRES   REMARKS
CHATTANOOGA    FAIR      71  62  73 S7        30.31R
$$

SKY/WX REPORTED AS FAIR MEANS FEW OR NO CLOUDS BELOW
12 THOUSAND FEET.





USA.gov is the U.S. government's official web portal to all federal, state and local government web resources and services.